EW5196 Weather Reports


time (UTC)temp
C
wind
direction
speed
KPH
gust
KPH
rain 1hr
cm
rain 24hr
cm
rain mn
cm
humidity
%
barometer
mb
20260504081256 10 132 3.2 4.8 0.00 0.00 0.00 66 1018.2
20260504080753 9 119 3.2 4.8 0.00 0.00 0.00 65 1018.2
20260504080249 9 140 3.2 4.8 0.00 0.00 0.00 67 1018.0
20260504070217 7 152 1.6 3.2 0.00 0.00 0.00 80 1018.0
20260504060137 6 167 3.2 4.8 0.00 0.00 0.00 85 1018.2
20260504050606 5 142 3.2 3.2 0.00 0.00 0.00 86 1018.1
20260504045559 6 139 3.2 3.2 0.00 0.00 0.00 85 1018.4
20260504045054 5 149 3.2 3.2 0.00 0.00 0.00 84 1018.0
20260504044553 5 145 3.2 3.2 0.00 0.00 0.00 85 1018.1
20260504044049 5 152 3.2 3.2 0.00 0.00 0.00 86 1018.3
20260504043546 5 150 3.2 4.8 0.00 0.00 0.00 85 1018.2
20260504043043 6 146 3.2 3.2 0.00 0.00 0.00 85 1018.2
20260504042540 6 143 3.2 3.2 0.00 0.00 0.00 86 1018.1
20260504042038 6 143 3.2 4.8 0.00 0.00 0.00 86 1018.3
20260504041533 6 139 3.2 3.2 0.00 0.00 0.00 87 1018.1
20260504041029 6 160 3.2 4.8 0.00 0.00 0.00 86 1018.3
20260504040527 6 153 4.8 4.8 0.00 0.00 0.00 86 1018.2
20260504040024 6 148 3.2 4.8 0.00 0.00 0.00 84 1018.0
20260504035521 6 136 3.2 3.2 0.00 0.00 0.00 85 1018.0
20260504035017 6 135 1.6 3.2 0.00 0.00 0.00 85 1018.2
20260504034515 6 127 3.2 3.2 0.00 0.00 0.00 84 1018.1
20260504034011 6 130 3.2 3.2 0.00 0.00 0.00 81 1017.9
20260504033509 6 141 3.2 3.2 0.00 0.00 0.00 80 1018.3
20260504033007 6 140 3.2 3.2 0.00 0.00 0.00 80 1018.0
20260504032503 6 157 3.2 3.2 0.00 0.00 0.00 81 1018.2
20260504032000 6 149 3.2 3.2 0.00 0.00 0.00 81 1018.1
20260504031456 6 137 3.2 4.8 0.00 0.00 0.00 80 1018.2
20260504030953 6 140 3.2 3.2 0.00 0.00 0.00 80 1018.1
20260504030451 7 149 4.8 4.8 0.00 0.00 0.00 81 1018.1
20260504025946 7 143 3.2 4.8 0.00 0.00 0.00 80 1018.0
20260504025443 7 145 3.2 3.2 0.00 0.00 0.00 79 1017.9
20260504024940 7 140 3.2 4.8 0.00 0.00 0.00 80 1018.2
20260504024437 7 142 3.2 4.8 0.00 0.00 0.00 79 1018.0
20260504023934 7 140 3.2 3.2 0.00 0.00 0.00 80 1018.1
20260504023431 7 145 3.2 3.2 0.00 0.00 0.00 80 1018.0
20260504022926 7 135 3.2 3.2 0.00 0.00 0.00 79 1018.1
20260504022423 7 138 3.2 3.2 0.00 0.00 0.00 79 1017.8
20260504021920 7 132 3.2 4.8 0.00 0.00 0.00 77 1018.0
20260504021417 7 137 3.2 3.2 0.00 0.00 0.00 78 1018.0
20260504020914 7 129 3.2 3.2 0.00 0.00 0.00 78 1017.9
20260504020411 8 136 3.2 3.2 0.00 0.00 0.00 78 1018.0
20260504015907 8 123 1.6 3.2 0.00 0.00 0.00 77 1017.7
20260504015403 8 136 3.2 3.2 0.00 0.00 0.00 76 1017.6
20260504014859 8 132 1.6 3.2 0.00 0.00 0.00 74 1017.7
20260504014355 8 136 3.2 3.2 0.00 0.00 0.00 74 1017.8
20260504013853 8 123 3.2 3.2 0.00 0.00 0.00 77 1017.6
20260504013351 8 129 1.6 3.2 0.00 0.00 0.00 75 1017.9
20260504012847 8 130 1.6 3.2 0.00 0.00 0.00 72 1017.8
20260504012345 9 132 3.2 3.2 0.00 0.00 0.00 73 1017.7
20260504011842 9 134 3.2 3.2 0.00 0.00 0.00 74 1017.7
20260504011339 9 134 3.2 3.2 0.00 0.00 0.00 71 1017.8
20260504010835 10 137 3.2 4.8 0.00 0.00 0.00 71 1017.4
20260504010330 10 129 3.2 3.2 0.00 0.00 0.00 71 1017.6
20260504005827 10 130 3.2 4.8 0.00 0.00 0.00 71 1017.8
20260504005324 10 145 3.2 3.2 0.00 0.00 0.00 71 1017.6
20260504004822 10 134 3.2 3.2 0.00 0.00 0.00 70 1017.5
20260504004319 11 134 1.6 3.2 0.00 0.00 0.00 67 1017.5
20260504003815 11 143 3.2 3.2 0.00 0.00 0.00 66 1017.4
20260504003313 11 141 3.2 3.2 0.00 0.00 0.00 67 1017.5
20260504002809 11 137 1.6 3.2 0.00 0.00 0.00 62 1017.4
20260504002306 12 140 3.2 3.2 0.00 0.00 0.00 58 1017.5
20260504001804 12 148 1.6 3.2 0.00 0.00 0.00 61 1017.3
20260504001301 12 142 3.2 3.2 0.00 0.00 0.00 55 1017.3
20260504000757 12 144 3.2 3.2 0.00 0.00 0.00 49 1017.3
20260504000254 13 140 3.2 3.2 0.00 0.00 0.00 59 1017.1
20260503235752 13 139 3.2 4.8 0.00 0.00 0.00 55 1017.0
20260503235249 14 139 1.6 3.2 0.00 0.00 0.00 48 1017.0
20260503234747 14 135 3.2 3.2 0.00 0.00 0.00 44 1017.1
20260503234244 15 136 1.6 3.2 0.00 0.00 0.00 47 1017.0
20260503233736 15 134 1.6 3.2 0.00 0.00 0.00 43 1016.9
20260503233232 15 141 3.2 3.2 0.00 0.00 0.00 39 1017.1
20260503232729 15 137 3.2 3.2 0.00 0.00 0.00 38 1016.9
20260503232226 16 138 3.2 3.2 0.00 0.00 0.00 42 1017.1
20260503231724 16 138 3.2 3.2 0.00 0.00 0.00 36 1017.0
20260503231220 16 137 3.2 3.2 0.00 0.00 0.00 33 1017.1
20260503230717 16 134 3.2 3.2 0.00 0.00 0.00 34 1016.9
20260503230214 16 135 3.2 4.8 0.00 0.00 0.00 33 1016.9
20260503225711 16 161 3.2 4.8 0.00 0.00 0.00 33 1016.9
20260503225211 17 139 3.2 3.2 0.00 0.00 0.00 32 1016.8
20260503224709 17 140 4.8 4.8 0.00 0.00 0.00 31 1017.0
20260503224207 17 144 3.2 3.2 0.00 0.00 0.00 31 1017.0
20260503223704 17 148 1.6 6.4 0.00 0.00 0.00 28 1017.0
20260503223201 17 170 3.2 4.8 0.00 0.00 0.00 28 1017.0
20260503222658 17 164 3.2 8.0 0.00 0.00 0.00 28 1016.9
20260503222155 18 165 3.2 4.8 0.00 0.00 0.00 28 1017.2
20260503221654 18 146 1.6 4.8 0.00 0.00 0.00 26 1017.0
20260503221151 18 137 6.4 8.0 0.00 0.00 0.00 26 1017.2
20260503220648 18 134 3.2 6.4 0.00 0.00 0.00 26 1017.0
20260503220144 18 154 3.2 4.8 0.00 0.00 0.00 29 1017.3
20260503215641 17 153 4.8 8.0 0.00 0.00 0.00 28 1017.0
20260503215137 17 142 3.2 3.2 0.00 0.00 0.00 29 1017.3
20260503214637 17 138 3.2 4.8 0.00 0.00 0.00 28 1017.3
20260503214132 17 124 4.8 8.0 0.00 0.00 0.00 27 1017.2
20260503213626 17 163 4.8 8.0 0.00 0.00 0.00 27 1017.2
20260503213121 17 129 3.2 4.8 0.00 0.00 0.00 28 1017.2
20260503212620 17 118 3.2 9.7 0.00 0.00 0.00 27 1017.2
20260503212117 17 145 6.4 8.0 0.00 0.00 0.00 27 1017.4
20260503211615 17 180 6.4 8.0 0.00 0.00 0.00 25 1017.3
20260503211110 17 201 3.2 4.8 0.00 0.00 0.00 26 1017.3
20260503210606 17 142 4.8 9.7 0.00 0.00 0.00 26 1017.2
20260503205559 17 112 3.2 4.8 0.00 0.00 0.00 25 1017.2
20260503205055 17 209 4.8 8.0 0.00 0.00 0.00 24 1017.2
20260503204553 17 156 3.2 8.0 0.00 0.00 0.00 26 1017.3
20260503204050 17 139 3.2 9.7 0.00 0.00 0.00 29 1017.0
20260503203547 17 109 4.8 4.8 0.00 0.00 0.00 28 1016.9
20260503203044 17 131 1.6 4.8 0.00 0.00 0.00 30 1017.1
20260503202542 17 175 3.2 8.0 0.00 0.00 0.00 26 1017.2
20260503202039 17 131 3.2 6.4 0.00 0.00 0.00 26 1017.3
20260503201537 17 78 3.2 8.0 0.00 0.00 0.00 26 1017.2
20260503201034 17 166 4.8 9.7 0.00 0.00 0.00 26 1017.6
20260503200530 17 220 4.8 8.0 0.00 0.00 0.00 26 1017.5
20260503200027 17 149 4.8 6.4 0.00 0.00 0.00 25 1017.7
20260503195524 17 129 3.2 6.4 0.00 0.00 0.00 28 1017.8
20260503195021 18 188 4.8 9.7 0.00 0.00 0.00 26 1018.0
20260503194519 18 176 3.2 6.4 0.00 0.00 0.00 27 1017.8
20260503194018 18 158 3.2 8.0 0.00 0.00 0.00 25 1018.0
20260503193515 18 183 6.4 9.7 0.00 0.00 0.00 26 1018.0
20260503193010 17 223 8.0 11.3 0.00 0.00 0.00 25 1018.0
20260503192506 17 153 6.4 8.0 0.00 0.00 0.00 29 1018.1
20260503192002 17 79 4.8 4.8 0.00 0.00 0.00 30 1018.1
20260503191459 17 174 3.2 8.0 0.00 0.00 0.00 26 1018.3
20260503190955 17 131 8.0 8.0 0.00 0.00 0.00 27 1018.4
20260503190453 17 183 8.0 8.0 0.00 0.00 0.00 27 1018.4
20260503185950 17 78 3.2 12.9 0.00 0.00 0.00 26 1018.2
20260503185446 17 137 6.4 8.0 0.00 0.00 0.00 28 1018.5
20260503184946 17 230 8.0 9.7 0.00 0.00 0.00 29 1018.7
20260503184443 17 117 9.7 11.3 0.00 0.00 0.00 28 1018.4
20260503183939 16 146 4.8 17.7 0.00 0.00 0.00 28 1018.5
20260503183435 16 144 8.0 8.0 0.00 0.00 0.00 27 1018.6
20260503182933 16 126 6.4 11.3 0.00 0.00 0.00 28 1018.9
20260503182431 16 122 3.2 6.4 0.00 0.00 0.00 30 1018.8
20260503181929 16 172 3.2 4.8 0.00 0.00 0.00 30 1018.6
20260503181426 16 136 8.0 11.3 0.00 0.00 0.00 29 1018.9
20260503180921 16 151 3.2 8.0 0.00 0.00 0.00 30 1019.0
20260503180420 16 114 6.4 9.7 0.00 0.00 0.00 31 1018.8
20260503175916 16 118 4.8 8.0 0.00 0.00 0.00 32 1018.8
20260503175414 15 88 6.4 8.0 0.00 0.00 0.00 33 1018.8
20260503174910 16 114 6.4 12.9 0.00 0.00 0.00 31 1018.8
20260503174408 15 178 4.8 8.0 0.00 0.00 0.00 31 1018.8
20260503173903 15 163 4.8 8.0 0.00 0.00 0.00 30 1019.1
20260503173359 15 186 11.3 11.3 0.00 0.00 0.00 30 1018.9
20260503172856 15 246 3.2 9.7 0.00 0.00 0.00 28 1019.1
20260503172353 15 191 3.2 6.4 0.00 0.00 0.00 31 1018.9
20260503171849 15 123 6.4 8.0 0.00 0.00 0.00 32 1018.9
20260503171346 15 49 8.0 8.0 0.00 0.00 0.00 30 1018.9
20260503170844 15 131 8.0 9.7 0.00 0.00 0.00 31 1019.0
20260503170340 14 60 4.8 6.4 0.00 0.00 0.00 32 1019.0
20260503150732 12 161 4.8 6.4 0.00 0.00 0.00 34 1020.3
20260503150229 12 129 4.8 6.4 0.00 0.00 0.00 35 1020.5
20260503140153 11 139 11.3 14.5 0.00 0.00 0.00 33 1020.3
20260503131122 10 165 8.0 17.7 0.00 0.00 0.00 42 1020.2
20260503130620 10 240 6.4 14.5 0.00 0.00 0.00 44 1020.0
20260503130118 10 144 9.7 9.7 0.00 0.00 0.00 45 1020.2
20260503110510 3 123 3.2 6.4 0.00 0.00 0.00 88 1019.1
20260503090350 7 154 3.2 4.8 0.00 0.00 0.00 67 1017.3